THOR ABLESTAR DEB, 330

Orbit data source: Space-Track

THOR ABLESTAR DEB, 330 is space debris in LEO originally from a launch on Thu, 29 Jun 1961 UTC launched from the Air Force Eastern Test Range (AFETR). Debris objects in space refer to the collection of defunct objects orbiting the Earth. Examples of debris include non-operational satellites, rocket bodies, and fragments generated from explosions, collisions, or faulty payload assembly.

Loading next visibility...
Identifier
330, 1961-015DG
Orbit
LEO
Country
Flag of USUS
Related business
Manufacturer
Unknown
Mission
Spacecraft
Bus & Motor
Unknown
Mass
Unknown
Launch date (UTC)
1961-06-29 (64 years ago)
Launch vehicle
Unknown
Launch site
Air Force Eastern Test Range (AFETR)
Object type
Payload
Rocket body
Debris
Shape & HBR
Unknown
Radar Cross Section
Small (<0.1 m²)

Expand to show TLE details & history
Last TLE update: 1 day ago

TLE from 1 day ago
0 THOR ABLESTAR DEB
1 00330U 61015DG  25257.33526707  .00000569  00000-0  38869-3 0  9990
2 00330  66.9776 270.1678 0052929 317.6968  42.0043 14.06169196257917
Epoch: 2025-09-14T08:02Z
TLE epoch observation values (Epoch: 2025-09-14T08:02:47.074Z)
Latitude
-0.00003°
Longitude
155.91589°
Altitude
846.186 km
Speed
7.445 km/s
True Right ascension
18h 00m 40s
True Declination
0° 00' 00"
Sunlit
Object was in daylight at epoch
Visualization orbit readout
Latitude
Unknown
Longitude
Unknown
Altitude
Unknown
Speed
Unknown
Apparent Right ascension
Unknown
Apparent Declination
Unknown
Sunlit
N/A
Visualization observer readout
Local Sidereal Time
02:47:45
Azimuth
Unknown
Elevation
Unknown
Doppler factor
Unknown
Orbital elements
Apogee altitude
909.24 km
Perigee altitude
832.503 km
Semi-major axis
7,249.009 km
Eccentricity
0.00529
Inclination
66.9776°
RAAN
270.1678°
Arg. of periapsis
317.6968°
True anomaly
42.41218°
Mean anomaly
42.0043°
Eccentric anomaly
42.20804°
Mean motion
3.51662 °/min
Orbital period
102.37 mins
BSTAR
0.00038869
Loading maneuver chart data...
Computing Atmospheric mass density...

Documentation

Showing up to 5 results
|